When you browse on this site, cookies collect data to enhance your experience and personalize the content and advertising you see.
Visit our Privacy Policy to learn more. By continuing to use the site, you agree to this use of cookies and data.
  • In Latvia
  • List of Countries
  • For 7 days
  • Water Temperature
  • Weather Map
  • Weather Widgets
  • user-avatar
    Login

    Hourly Weather Ndjbele

    Today, 22 September, Sunday

    Time Temperature Precipitation Wind Pressure Humidity
    00:00 +21°C° 0.5 mm 0 mps 716 mmHg 99%
    01:00 +21°C° 0.5 mm 0 mps 716 mmHg 99%
    02:00 +21°C° 0.5 mm 0 mps 716 mmHg 99%
    03:00 +20°C° 1 mm 0 mps 716 mmHg 99%
    04:00 +20°C° 1 mm 0 mps 716 mmHg 99%
    05:00 +20°C° 0 mm 0 mps 716 mmHg 99%
    06:00 +21°C° 0.1 mm 0 mps 717 mmHg 97%
    07:00 +22°C° 0.1 mm 0 mps 717 mmHg 94%
    08:00 +23°C° 0.1 mm 0 mps 717 mmHg 92%
    09:00 +25°C° 0 mm 0 mps 717 mmHg 83%
    10:00 +27°C° 0 mm 0 mps 717 mmHg 75%
    11:00 +28°C° 0 mm 0 mps 716 mmHg 66%
    12:00 +28°C° 0.3 mm 0 mps 716 mmHg 69%
    13:00 +28°C° 0.3 mm 0 mps 715 mmHg 72%
    14:00 +28°C° 0.3 mm 0 mps 714 mmHg 75%
    15:00 +27°C° 2 mm 0 mps 714 mmHg 82%
    16:00 +25°C° 2 mm 0 mps 714 mmHg 88%
    17:00 +24°C° 2 mm 0 mps 714 mmHg 95%
    18:00 +25°C° 2.9 mm 1 mps 715 mmHg 95%
    19:00 +25°C° 2.9 mm 1 mps 715 mmHg 95%
    20:00 +24°C° 2.9 mm 1 mps 716 mmHg 95%
    21:00 +24°C° 1.1 mm 1 mps 716 mmHg 97%
    22:00 +23°C° 1.1 mm 1 mps 717 mmHg 98%
    23:00 +23°C° 1.1 mm 1 mps 717 mmHg 99%

    Tomorrow, 23 September, Monday

    Time Temperature Precipitation Wind Pressure Humidity
    00:00 +23°C° 0.1 mm 1 mps 716 mmHg 99%
    01:00 +23°C° 0.1 mm 1 mps 716 mmHg 99%
    02:00 +21°C° 0.1 mm 0 mps 716 mmHg 99%
    03:00 +21°C° 0 mm 0 mps 716 mmHg 99%
    04:00 +21°C° 0 mm 0 mps 716 mmHg 99%
    05:00 +21°C° 0 mm 0 mps 716 mmHg 99%
    06:00 +22°C° 0 mm 0 mps 717 mmHg 96%
    07:00 +22°C° 0 mm 0 mps 717 mmHg 94%
    08:00 +23°C° 0 mm 0 mps 717 mmHg 91%
    09:00 +25°C° 0 mm 0 mps 717 mmHg 82%
    10:00 +27°C° 0 mm 0 mps 717 mmHg 73%
    11:00 +28°C° 0 mm 0 mps 717 mmHg 64%
    12:00 +29°C° 0.3 mm 0 mps 716 mmHg 63%
    13:00 +29°C° 0.3 mm 0 mps 716 mmHg 63%
    14:00 +32°C° 0.3 mm 1 mps 715 mmHg 62%
    15:00 +30°C° 0.7 mm 1 mps 715 mmHg 72%
    16:00 +28°C° 0.7 mm 1 mps 715 mmHg 82%
    17:00 +26°C° 0.7 mm 1 mps 715 mmHg 93%
    18:00 +25°C° 1.7 mm 1 mps 715 mmHg 94%
    19:00 +24°C° 1.7 mm 1 mps 716 mmHg 96%
    20:00 +23°C° 1.7 mm 1 mps 716 mmHg 98%
    21:00 +23°C° 0.9 mm 1 mps 716 mmHg 98%
    22:00 +23°C° 0.9 mm 1 mps 717 mmHg 99%
    23:00 +23°C° 0.9 mm 2 mps 717 mmHg 99%

    Day after tomorrow, 24 September, Tuesday

    Time Temperature Precipitation Wind Pressure Humidity
    00:00 +23°C° 0.2 mm 1 mps 717 mmHg 99%
    01:00 +23°C° 0.2 mm 1 mps 716 mmHg 99%
    02:00 +23°C° 0.2 mm 1 mps 716 mmHg 99%
    03:00 +23°C° 0 mm 1 mps 716 mmHg 99%
    04:00 +21°C° 0 mm 0 mps 716 mmHg 99%
    05:00 +20°C° 0 mm 0 mps 716 mmHg 99%
    06:00 +21°C° 0 mm 0 mps 717 mmHg 97%
    07:00 +22°C° 0 mm 0 mps 717 mmHg 94%
    08:00 +23°C° 0 mm 0 mps 718 mmHg 92%
    09:00 +25°C° 0 mm 0 mps 718 mmHg 82%
    10:00 +27°C° 0 mm 0 mps 717 mmHg 73%
    11:00 +29°C° 0 mm 0 mps 717 mmHg 63%
    12:00 +28°C° 0.6 mm 0 mps 716 mmHg 68%
    13:00 +27°C° 0.6 mm 0 mps 716 mmHg 74%
    14:00 +26°C° 0.6 mm 0 mps 715 mmHg 80%
    15:00 +25°C° 0.4 mm 0 mps 715 mmHg 84%
    16:00 +25°C° 0.4 mm 0 mps 715 mmHg 89%
    17:00 +24°C° 0.4 mm 0 mps 715 mmHg 93%
    18:00 +23°C° 0.1 mm 0 mps 716 mmHg 95%
    19:00 +25°C° 0.1 mm 1 mps 716 mmHg 96%
    20:00 +24°C° 0.1 mm 1 mps 716 mmHg 97%
    21:00 +24°C° 0.1 mm 1 mps 717 mmHg 98%
    22:00 +24°C° 0.1 mm 1 mps 717 mmHg 98%
    23:00 +24°C° 0.1 mm 1 mps 717 mmHg 99%

    25 September, Wednesday

    Time Temperature Precipitation Wind Pressure Humidity
    00:00 +23°C° 0 mm 1 mps 716 mmHg 99%
    01:00 +23°C° 0 mm 1 mps 716 mmHg 99%
    02:00 +21°C° 0 mm 0 mps 716 mmHg 99%
    03:00 +21°C° 0 mm 0 mps 716 mmHg 99%
    04:00 +21°C° 0 mm 0 mps 716 mmHg 98%
    05:00 +21°C° 0 mm 0 mps 716 mmHg 98%
    06:00 +22°C° 0.5 mm 0 mps 717 mmHg 97%
    07:00 +23°C° 0.5 mm 0 mps 717 mmHg 95%
    08:00 +23°C° 0.5 mm 0 mps 718 mmHg 93%
    09:00 +24°C° 0.3 mm 0 mps 717 mmHg 88%
    10:00 +27°C° 0.3 mm 1 mps 717 mmHg 83%
    11:00 +28°C° 0.3 mm 1 mps 716 mmHg 77%
    12:00 +29°C° 0 mm 1 mps 716 mmHg 71%
    13:00 +29°C° 0 mm 0 mps 715 mmHg 65%
    14:00 +30°C° 0 mm 0 mps 715 mmHg 58%
    15:00 +28°C° 1.1 mm 0 mps 715 mmHg 69%
    16:00 +28°C° 1.1 mm 1 mps 715 mmHg 79%
    17:00 +26°C° 1.1 mm 1 mps 715 mmHg 90%
    18:00 +25°C° 3.9 mm 1 mps 715 mmHg 92%
    19:00 +22°C° 3.9 mm 0 mps 716 mmHg 95%
    20:00 +21°C° 3.9 mm 0 mps 716 mmHg 98%
    21:00 +23°C° 1.2 mm 1 mps 717 mmHg 98%
    22:00 +23°C° 1.2 mm 1 mps 717 mmHg 98%
    23:00 +23°C° 1.2 mm 1 mps 717 mmHg 98%

    26 September, Thursday

    Time Temperature Precipitation Wind Pressure Humidity
    00:00 +23°C° 0.1 mm 1 mps 716 mmHg 99%
    01:00 +23°C° 0.1 mm 1 mps 716 mmHg 99%
    02:00 +21°C° 0.1 mm 0 mps 716 mmHg 99%
    03:00 +21°C° 0 mm 0 mps 716 mmHg 99%
    04:00 +21°C° 0 mm 0 mps 716 mmHg 99%
    05:00 +21°C° 0 mm 0 mps 716 mmHg 99%
    06:00 +21°C° 0 mm 0 mps 717 mmHg 98%
    07:00 +21°C° 0 mm 0 mps 717 mmHg 98%
    08:00 +21°C° 0 mm 0 mps 717 mmHg 98%
    09:00 +22°C° 0.1 mm 0 mps 717 mmHg 93%
    10:00 +25°C° 0.1 mm 1 mps 717 mmHg 89%
    11:00 +26°C° 0.1 mm 1 mps 717 mmHg 85%
    12:00 +26°C° 0.1 mm 1 mps 717 mmHg 83%
    13:00 +27°C° 0.1 mm 1 mps 716 mmHg 82%
    14:00 +27°C° 0.1 mm 1 mps 716 mmHg 80%
    15:00 +27°C° 0.3 mm 1 mps 716 mmHg 82%
    16:00 +26°C° 0.3 mm 1 mps 716 mmHg 85%
    17:00 +26°C° 0.3 mm 1 mps 716 mmHg 87%
    18:00 +25°C° 1.4 mm 1 mps 717 mmHg 91%
    19:00 +24°C° 1.4 mm 1 mps 717 mmHg 94%
    20:00 +23°C° 1.4 mm 1 mps 717 mmHg 98%
    21:00 +23°C° 0 mm 1 mps 717 mmHg 98%
    22:00 +23°C° 0 mm 1 mps 718 mmHg 99%
    23:00 +23°C° 0 mm 1 mps 718 mmHg 99%

    27 September, Friday

    Time Temperature Precipitation Wind Pressure Humidity
    00:00 +23°C° 0 mm 1 mps 717 mmHg 99%
    01:00 +23°C° 0 mm 1 mps 717 mmHg 99%
    02:00 +23°C° 0 mm 1 mps 717 mmHg 99%
    03:00 +23°C° 0 mm 1 mps 717 mmHg 99%
    04:00 +21°C° 0 mm 0 mps 717 mmHg 99%
    05:00 +20°C° 0 mm 0 mps 717 mmHg 99%
    06:00 +21°C° 0 mm 0 mps 717 mmHg 98%
    07:00 +21°C° 0 mm 0 mps 718 mmHg 96%
    08:00 +24°C° 0 mm 1 mps 718 mmHg 95%
    09:00 +25°C° 0 mm 1 mps 718 mmHg 86%
    10:00 +27°C° 0 mm 1 mps 718 mmHg 77%
    11:00 +29°C° 0 mm 1 mps 717 mmHg 68%
    12:00 +29°C° 0 mm 1 mps 717 mmHg 65%
    13:00 +30°C° 0 mm 1 mps 716 mmHg 63%
    14:00 +30°C° 0 mm 1 mps 715 mmHg 61%
    15:00 +29°C° 0.1 mm 1 mps 715 mmHg 68%
    16:00 +28°C° 0.1 mm 1 mps 715 mmHg 75%
    17:00 +25°C° 0.1 mm 0 mps 715 mmHg 82%
    18:00 +26°C° 0.4 mm 1 mps 716 mmHg 87%
    19:00 +25°C° 0.4 mm 1 mps 716 mmHg 93%
    20:00 +23°C° 0.4 mm 1 mps 717 mmHg 98%
    21:00 +23°C° 0.4 mm 1 mps 717 mmHg 98%
    22:00 +23°C° 0.4 mm 2 mps 717 mmHg 99%
    23:00 +23°C° 0.4 mm 2 mps 717 mmHg 99%
    Show more